Total_Precipitation_Accumulation
1.13 1.20 1.07 1.02 0.93 0.93 0.94 0.82 0.74 0.68 0.54 0.49 0.38 0.33 0.36 0.32 0.34 0.42 0.53 0.58 0.59 0.76 0.97 1.01 0.93 0.82 0.78 0.75 0.73 0.69 0.63 0.61 0.55 0.48 0.44 0.41 0.40 0.39 0.36 0.36 0.36 0.33 0.30
1.32 1.38 1.31 1.28 1.23 1.24 1.32 1.17 1.01 1.00 0.87 0.81 0.71 0.66 0.66 0.63 0.60 0.63 0.77 0.74 0.65 0.71 0.91 1.09 1.13 1.11 1.09 1.01 0.94 0.83 0.76 0.73 0.68 0.66 0.63 0.56 0.51 0.47 0.45 0.45 0.42 0.38 0.35
1.48 1.52 1.63 1.61 1.55 1.52 1.55 1.54 1.43 1.39 1.28 1.21 1.08 0.89 0.85 0.92 0.97 0.90 0.94 1.02 0.89 0.86 0.86 0.96 1.06 1.15 1.21 1.20 1.17 1.09 0.99 0.92 0.85 0.81 0.76 0.69 0.65 0.63 0.61 0.56 0.51 0.47 0.46
1.63 1.77 1.84 1.84 1.83 1.79 1.87 1.92 1.88 1.70 1.62 1.49 1.37 1.15 1.07 1.06 1.13 1.22 1.20 1.26 1.37 1.27 1.13 1.04 1.04 1.12 1.22 1.25 1.27 1.26 1.20 1.10 1.01 0.94 0.88 0.81 0.79 0.75 0.68 0.62 0.59 0.57 0.54
1.97 2.05 2.13 2.21 2.23 2.28 2.29 2.20 2.22 2.00 1.97 1.88 1.65 1.52 1.33 1.26 1.25 1.25 1.32 1.31 1.37 1.38 1.35 1.28 1.14 1.12 1.22 1.36 1.35 1.37 1.33 1.26 1.19 1.07 0.98 0.90 0.89 0.85 0.78 0.73 0.70 0.66 0.61
2.61 2.69 2.67 2.68 2.68 2.74 2.62 2.57 2.54 2.35 2.19 2.16 1.83 1.67 1.52 1.40 1.37 1.32 1.33 1.33 1.25 1.17 1.21 1.24 1.28 1.18 1.21 1.28 1.30 1.38 1.42 1.45 1.39 1.27 1.19 1.11 1.03 0.91 0.80 0.77 0.73 0.70 0.69
3.59 3.61 3.52 3.41 3.27 3.13 2.97 2.87 2.70 2.52 2.31 2.21 2.08 1.77 1.42 1.21 1.22 1.19 1.19 1.27 1.28 1.22 1.19 1.20 1.20 1.14 1.09 1.10 1.12 1.20 1.32 1.48 1.52 1.45 1.35 1.22 1.05 0.92 0.85 0.80 0.77 0.75 0.74
4.52 4.62 4.51 4.29 4.09 3.72 3.29 2.97 2.76 2.62 2.39 2.32 2.22 2.12 1.68 1.34 1.13 0.94 0.98 1.02 1.06 1.14 1.12 1.06 1.06 1.10 1.09 1.06 1.03 1.06 1.13 1.28 1.45 1.54 1.51 1.36 1.20 1.09 1.01 0.95 0.90 0.87 0.85
4.72 4.88 4.85 4.60 4.23 3.66 3.14 2.92 2.80 2.65 2.51 2.41 2.26 2.28 1.93 1.60 1.32 1.01 0.86 0.80 0.84 0.85 0.85 0.88 0.90 0.95 0.94 0.95 0.93 0.98 1.05 1.13 1.31 1.44 1.39 1.24 1.13 1.08 1.07 1.02 0.99 0.97 0.96
4.58 4.50 4.37 3.98 3.54 3.18 2.90 2.78 2.74 2.53 2.50 2.39 2.28 2.01 1.79 1.57 1.40 1.16 0.95 0.81 0.76 0.72 0.72 0.74 0.77 0.84 0.88 0.89 0.93 0.97 0.99 1.03 1.13 1.18 1.19 1.14 1.08 1.06 1.08 1.09 1.07 1.06 1.06
3.84 3.50 3.17 2.93 2.80 2.59 2.38 2.29 2.26 2.20 2.08 1.98 1.95 1.88 1.78 1.58 1.32 1.14 1.02 0.91 0.87 0.81 0.76 0.77 0.78 0.81 0.85 0.88 0.93 1.03 1.03 0.97 0.98 0.96 0.95 0.95 0.97 0.99 1.00 1.02 1.05 1.08 1.08
3.13 2.72 2.53 2.32 2.17 1.99 1.77 1.64 1.62 1.66 1.71 1.76 1.80 1.76 1.68 1.62 1.48 1.36 1.24 1.08 1.03 1.00 0.90 0.86 0.86 0.88 0.93 1.00 1.11 1.29 1.10 0.99 0.94 0.91 0.86 0.84 0.86 0.87 0.89 0.92 0.98 1.04 1.10
2.82 2.41 2.04 1.85 1.64 1.46 1.37 1.32 1.30 1.29 1.34 1.44 1.56 1.59 1.56 1.52 1.47 1.46 1.45 1.35 1.25 1.14 1.02 0.97 0.96 0.98 1.00 1.06 1.18 1.33 1.14 1.06 0.96 0.87 0.81 0.80 0.81 0.80 0.80 0.82 0.85 0.91 0.96
2.21 1.93 1.53 1.24 1.07 0.96 0.91 0.94 0.99 1.04 1.08 1.12 1.22 1.32 1.33 1.32 1.34 1.37 1.41 1.43 1.48 1.38 1.15 1.07 1.09 1.10 1.08 1.06 1.19 1.22 1.00 1.10 1.01 0.94 0.88 0.85 0.81 0.78 0.76 0.76 0.77 0.75 0.72
1.46 1.24 1.02 0.87 0.79 0.75 0.72 0.69 0.71 0.75 0.80 0.86 0.94 1.04 1.15 1.20 1.21 1.25 1.30 1.34 1.37 1.40 1.31 1.16 1.12 1.10 1.05 1.03 1.19 0.92 0.80 0.98 0.95 0.91 0.87 0.81 0.73 0.66 0.62 0.60 0.59 0.58 0.58
0.87 0.79 0.70 0.67 0.63 0.57 0.56 0.57 0.56 0.57 0.66 0.70 0.72 0.80 0.92 1.04 1.12 1.17 1.24 1.25 1.20 1.18 1.20 1.08 1.00 1.00 0.99 0.94 1.04 0.77 0.74 0.86 0.75 0.70 0.66 0.62 0.57 0.52 0.49 0.49 0.50 0.51 0.49
0.65 0.61 0.55 0.53 0.53 0.53 0.52 0.49 0.50 0.48 0.53 0.64 0.73 0.78 0.84 0.90 0.96 1.00 1.02 1.04 1.11 1.14 1.21 1.21 1.10 1.02 0.95 0.90 0.86 0.74 0.66 0.63 0.62 0.62 0.56 0.51 0.47 0.43 0.40 0.37 0.35 0.35 0.35
0.53 0.52 0.49 0.48 0.48 0.51 0.52 0.51 0.50 0.51 0.52 0.57 0.62 0.65 0.67 0.68 0.74 0.81 0.86 0.87 0.92 0.98 1.06 1.14 1.08 0.95 0.87 0.79 0.71 0.66 0.56 0.50 0.49 0.51 0.47 0.43 0.39 0.35 0.32 0.29 0.26 0.23 0.22
0.49 0.47 0.46 0.46 0.46 0.46 0.47 0.49 0.50 0.49 0.48 0.50 0.51 0.51 0.52 0.53 0.56 0.58 0.62 0.66 0.70 0.74 0.80 0.84 0.86 0.78 0.73 0.65 0.61 0.57 0.50 0.50 0.40 0.39 0.35 0.31 0.28 0.26 0.23 0.21 0.20 0.19 0.17
0.46 0.48 0.47 0.45 0.42 0.38 0.35 0.34 0.34 0.34 0.33 0.34 0.34 0.34 0.38 0.42 0.44 0.44 0.44 0.45 0.49 0.57 0.63 0.69 0.68 0.64 0.59 0.52 0.55 0.54 0.48 0.44 0.38 0.28 0.28 0.23 0.20 0.17 0.15 0.15 0.15 0.13 0.12
0.39 0.38 0.33 0.30 0.25 0.20 0.18 0.18 0.20 0.22 0.23 0.23 0.23 0.22 0.24 0.30 0.35 0.36 0.36 0.39 0.45 0.51 0.54 0.57 0.54 0.50 0.47 0.50 0.51 0.47 0.43 0.38 0.33 0.27 0.30 0.29 0.29 0.30 0.30 0.23 0.17 0.13 0.10
0.31 0.24 0.20 0.18 0.16 0.14 0.14 0.14 0.15 0.19 0.22 0.21 0.22 0.23 0.23 0.25 0.26 0.26 0.30 0.39 0.49 0.51 0.52 0.53 0.50 0.50 0.47 0.47 0.47 0.44 0.44 0.45 0.46 0.34 0.36 0.34 0.31 0.35 0.34 0.31 0.22 0.13 0.10
0.27 0.25 0.19 0.15 0.13 0.12 0.12 0.12 0.13 0.19 0.22 0.23 0.23 0.22 0.20 0.21 0.23 0.23 0.26 0.30 0.35 0.39 0.45 0.52 0.57 0.55 0.55 0.55 0.55 0.52 0.53 0.56 0.54 0.43 0.49 0.47 0.34 0.33 0.25 0.20 0.18 0.12 0.10
0.28 0.28 0.24 0.21 0.17 0.11 0.09 0.10 0.11 0.16 0.20 0.21 0.22 0.24 0.23 0.24 0.24 0.24 0.24 0.25 0.30 0.36 0.38 0.40 0.52 0.53 0.48 0.49 0.54 0.56 0.59 0.60 0.60 0.54 0.56 0.58 0.37 0.31 0.24 0.29 0.25 0.16 0.12
0.27 0.24 0.22 0.22 0.21 0.16 0.09 0.09 0.10 0.16 0.21 0.20 0.19 0.19 0.22 0.24 0.24 0.23 0.25 0.32 0.35 0.40 0.33 0.34 0.41 0.48 0.49 0.49 0.48 0.53 0.68 0.79 0.75 0.57 0.54 0.59 0.46 0.36 0.30 0.33 0.28 0.20 0.15
0.27 0.22 0.19 0.18 0.18 0.17 0.10 0.10 0.12 0.16 0.20 0.19 0.18 0.18 0.19 0.19 0.19 0.18 0.25 0.33 0.42 0.43 0.39 0.43 0.54 0.59 0.59 0.65 0.61 0.62 0.77 0.83 0.78 0.73 0.58 0.58 0.54 0.49 0.46 0.34 0.31 0.30 0.29